Weather Roundup
Issued by NWS Chicago, IL

Home | Current Version | Previous Version | Graphics & Text | Print | Product List | Glossary On
Versions: 1 2 3 4 5 6 7 8 9 10 11 12 13 14 15 16 17 18 19 20 21 22 23 24 25 26 27 28 29 30 31 32 33 34 35 36 37 38 39 40 41 42 43 44 45 46 47 48 49 50
000
NZUS59 KLOT 101307
HRRLOT

CHICAGO AREA WEATHER ROUNDUP
NATIONAL WEATHER SERVICE CHICAGO/ROMEOVILLE IL
700 AM CST SAT DEC 10 2016

NOTE: "FAIR" INDICATES FEW OR NO CLOUDS BELOW 12,000 FEET WITH NO
SIGNIFICANT WEATHER AND/OR OBSTRUCTIONS TO VISIBILITY.

* THESE STATIONS ARE NOT UNDER NWS QUALITY CONTROL. THEY ALSO MAY NOT
  REPORT WEATHER SUCH AS PRECIPITATION OR FOG.

ILZ005-006-012>014-019>023-101400-
NORTHEAST ILLINOIS

CITY           SKY/WX    TMP DP  RH WIND       PRES   REMARKS
OHARE          MOCLDY    18  12  77 W8        30.50S WCI   8
MIDWAY         MOCLDY    20  10  65 W9        30.51F WCI   9
AURORA         CLOUDY    19  13  77 SW6       30.52R WCI  11
LANSING*       CLOUDY    20  16  86 W9        30.52S WCI   9
JOLIET*        CLOUDY    21  16  79 W3        30.53F
WAUKEGAN       CLOUDY    17  12  80 CALM      30.47F
DUPAGE AIRPORT CLOUDY    18  11  74 W5        30.49F WCI  11
WHEELING       CLOUDY    18  11  74 W7        30.51F WCI   9
KANKAKEE*      CLOUDY    21  15  78 CALM      30.54S
MORRIS*        CLOUDY    19  15  81 CALM      30.52F
LEWIS AIRPORT* CLOUDY    18  16  90 W7        30.52S WCI   9
NORTHERLY ISL    N/A     21  13  71 W6          N/A  WCI  14
$$

WIZ051-052-058>065-066-070>072-101400-
SOUTHEAST WISCONSIN

CITY           SKY/WX    TMP DP  RH WIND       PRES   REMARKS
MILWAUKEE      PTCLDY    18  12  77 W6        30.47F WCI  10
KENOSHA*       CLEAR     16  11  80 W6        30.47F WCI   7
RACINE*        CLEAR     16  11  80 W6        30.49S WCI   7
BURLINGTON     CLEAR     19  16  89 W5        30.47S WCI  12
WAUKESHA       PTCLDY    12   9  85 W7        30.46F WCI   2
WEST BEND      LGT SNOW  16  14  93 W6        30.45S WCI   7
$$

INZ001>003-010>013-019-020-101400-
NORTHWEST INDIANA

CITY           SKY/WX    TMP DP  RH WIND       PRES   REMARKS
GARY*          MOCLDY    21  16  79 W10       30.52F WCI  10
MICHIGAN CITY* NOT AVBL
RENSSELAER*    NOT AVBL
VALPARAISO     CLOUDY    21  14  74 SW8       30.51S WCI  11
$$

LMZ740>746-101400-
SOUTHERN LAKE MICHIGAN

STATION/POSITION TIME  SKY/WX   TEMP WIND        PRES    VSBY
                                AIR  DIR/SP/G
                 (UTC)          (F)  (DEG/KT/KT) (MB)    (MI)
HARRISON CRIB    NOT AVBL
BURNHAM HARBOR   1300            21  280/  8/ 12   N/A
CALUMET HARBOR   1242            20  240/  7/ 11 1032.3F
BURNS HARBOR     1240            22  220/ 12/ 15 1033.2F
MICHIGAN CITY    NOT AVBL
$$

ABBREVIATIONS USED IN REMARKS
   TC - TEMPERATURE IN CELSIUS
  WCI - WIND CHILL INDEX
   HX - HEAT INDEX
  VSB - VISIBILITY
$$




USA.gov is the U.S. government's official web portal to all federal, state and local government web resources and services.